{"data":{"norad_id":67050,"intl_designator":"2025-294W","name":"STARLINK-36078","alt_names":[],"object_type":"PAYLOAD","status":"ACTIVE","operator":null,"country":"US","launch_date":"2025-12-11","launch_site_code":"AFETR","launch_vehicle":null,"mission":null,"orbit_class":"UNKNOWN","rcs_meters":null,"size_class":null,"mass_kg":null,"dimensions":null,"purposes":["comms"],"wikipedia_slug":null,"has_3d_model":false,"image_url":null,"decayed_at":null,"tle_current":{"epoch":"2026-05-25T04:52:29.669088Z","epoch_age_seconds":57768,"freshness":"FRESH","line1":"1 67050U 25294W   26145.20312117  .00012460  00000+0  46150-3 0  9996","line2":"2 67050  43.0045 325.7286 0000561 263.1997  96.8791 15.27582912 26503","mean_motion":15.27582912,"eccentricity":5.61e-5,"inclination_deg":43.0045,"raan_deg":325.7286,"arg_perigee_deg":263.1997,"mean_anomaly_deg":96.8791,"bstar":0.0004615,"rev_number":2650,"period_min":94.26656901488,"perigee_km":482.6554644271,"apogee_km":483.42528852874,"semimajor_km":6861.1773764779,"source":"CELESTRAK","updated_at":"2026-05-25T13:38:21.440736Z"}}}